{"data":{"norad_id":55131,"intl_designator":"2023-002A","name":"SHIJIAN-23 (SJ-23)","alt_names":[],"object_type":"PAYLOAD","status":"ACTIVE","operator":null,"country":"PRC","launch_date":"2023-01-08","launch_site_code":"WSC","launch_vehicle":null,"mission":null,"orbit_class":"UNKNOWN","rcs_meters":null,"size_class":null,"mass_kg":null,"dimensions":null,"purposes":["comms"],"wikipedia_slug":null,"has_3d_model":false,"image_url":null,"decayed_at":null,"tle_current":{"epoch":"2026-09-19T19:30:58.917024Z","epoch_age_seconds":77658,"freshness":"FRESH","line1":"1 55131U 23002A   26262.81318191 -.00000034  00000+0  00000+0 0  9998","line2":"2 55131   3.9538  77.0670 0002903 230.3487  58.7227  1.00024760 13457","mean_motion":1.0002476,"eccentricity":0.0002903,"inclination_deg":3.9538,"raan_deg":77.067,"arg_perigee_deg":230.3487,"mean_anomaly_deg":58.7227,"bstar":0,"rev_number":1345,"period_min":1439.6435442584,"perigee_km":35843.726949414,"apogee_km":35868.248082108,"semimajor_km":42234.124515761,"source":"CELESTRAK","updated_at":"2026-09-20T09:00:35.309892Z"}}}